Location: Kuppenheim
(48.8299°N, 8.2568°E)
Time: 22:13:30
(UTC+00:00)

X-37B - Visible Passes

Search period start: 04 December 2022 00:00
Search period end: 14 December 2022 00:00
Orbit: 277 x 277 km, 45.0° (Epoch: 01 November)

Date Brightness Start Highest point End Pass type
(mag) Time Alt. Az. Time Alt. Az. Time Alt. Az.
08 Dec 2.8 17:32:47 10° SSW 17:33:21 13° S 17:33:21 13° S visible
09 Dec 2.4 17:32:56 10° SW 17:34:03 17° SSW 17:34:03 17° SSW visible
10 Dec 2.1 17:33:18 10° SW 17:34:42 22° SSW 17:34:42 22° SSW visible
11 Dec 1.9 17:33:48 10° WSW 17:35:21 25° SSW 17:35:21 25° SSW visible
12 Dec 1.9 17:34:22 10° WSW 17:35:59 27° SSW 17:35:59 27° SSW visible
13 Dec 1.9 17:34:58 10° WSW 17:36:40 27° SW 17:36:40 27° SW visible
